KO4LCK Weather Reports


Display with metric or nautical units.
time (UTC)temp
F
wind
direction
speed
MPH
gust
MPH
rain 1hr
in
rain 24hr
in
rain mn
in
humidity
%
barometer
mb
20210924210718 72 138 0.0 0.0 0.00 0.00 0.00 53 1018.8
20210924210217 72 138 0.0 0.0 0.00 0.00 0.00 48 1018.5
20210924205716 72 138 0.0 0.0 0.00 0.00 0.00 51 1018.5
20210924205215 72 138 0.0 0.0 0.00 0.00 0.00 47 1018.8
20210924204713 72 138 0.0 0.0 0.00 0.00 0.00 45 1018.8
20210924204211 72 138 0.0 0.0 0.00 0.00 0.00 47 1018.8
20210924203710 72 138 0.0 0.0 0.00 0.00 0.00 49 1018.8
20210924203206 72 138 0.0 0.0 0.00 0.00 0.00 54 1018.8
20210924202704 72 138 0.0 0.0 0.00 0.00 0.00 59 1019.2
20210924202204 72 138 0.0 0.0 0.00 0.00 0.00 49 1019.2
20210924201703 72 138 0.0 0.0 0.00 0.00 0.00 50 1019.2
20210924201202 72 138 0.0 0.0 0.00 0.00 0.00 50 1018.8
20210924200700 72 138 0.0 0.0 0.00 0.00 0.00 54 1018.8
20210924200159 72 138 0.0 0.0 0.00 0.00 0.00 50 1019.2
20210924195658 72 138 0.0 0.0 0.00 0.00 0.00 54 1019.2
20210924195156 72 138 0.0 0.0 0.00 0.00 0.00 48 1019.2
20210924194646 72 138 0.0 0.0 0.00 0.00 0.00 55 1019.2
20210924194146 72 138 0.0 0.0 0.00 0.00 0.00 53 1019.5
20210924193645 72 138 0.0 0.0 0.00 0.00 0.00 51 1019.2
20210924193144 72 138 0.0 0.0 0.00 0.00 0.00 52 1019.2
20210924192645 72 138 0.0 0.0 0.00 0.00 0.00 53 1019.5
20210924192144 71 138 0.0 0.0 0.00 0.00 0.00 49 1019.5
20210924191643 71 138 0.0 0.0 0.00 0.00 0.00 55 1019.5
20210924191135 71 138 0.0 0.0 0.00 0.00 0.00 51 1019.5
20210924190634 71 138 0.0 0.0 0.00 0.00 0.00 54 1019.5
20210924190131 72 138 0.0 0.0 0.00 0.00 0.00 60 1019.5
20210924185629 72 138 0.0 0.0 0.00 0.00 0.00 54 1019.5
20210924185128 73 138 0.0 0.0 0.00 0.00 0.00 52 1019.5
20210924184628 73 138 0.0 0.0 0.00 0.00 0.00 55 1019.5
20210924184126 73 138 0.0 0.0 0.00 0.00 0.00 58 1019.5
20210924183624 73 138 0.0 0.0 0.00 0.00 0.00 55 1019.9
20210924183123 73 138 0.0 0.0 0.00 0.00 0.00 55 1019.9
20210924182614 73 138 0.0 0.0 0.00 0.00 0.00 55 1020.2
20210924182102 73 138 0.0 0.0 0.00 0.00 0.00 57 1019.9
20210924181601 73 138 0.0 0.0 0.00 0.00 0.00 54 1020.2
20210924181059 73 138 0.0 0.0 0.00 0.00 0.00 57 1020.2
20210924180554 73 138 0.0 0.0 0.00 0.00 0.00 51 1020.2
20210924180054 74 138 0.0 0.0 0.00 0.00 0.00 57 1020.2
20210924175553 74 138 0.0 0.0 0.00 0.00 0.00 50 1020.5
20210924175052 74 138 0.0 0.0 0.00 0.00 0.00 51 1020.2
20210924174550 74 138 0.0 0.0 0.00 0.00 0.00 56 1020.2
20210924174049 74 138 0.0 0.0 0.00 0.00 0.00 51 1020.5
20210924173547 74 138 0.0 0.0 0.00 0.00 0.00 54 1020.5
20210924173047 74 138 0.0 0.0 0.00 0.00 0.00 48 1020.5
20210924172545 74 138 0.0 0.0 0.00 0.00 0.00 48 1020.5
20210924172045 74 138 0.0 0.0 0.00 0.00 0.00 55 1020.9
20210924171543 73 138 0.0 0.0 0.00 0.00 0.00 53 1020.9
20210924171041 73 138 0.0 0.0 0.00 0.00 0.00 56 1020.9
20210924170540 74 138 0.0 0.0 0.00 0.00 0.00 52 1020.9
20210924170041 73 138 0.0 0.0 0.00 0.00 0.00 56 1020.9
20210924165539 72 138 0.0 0.0 0.00 0.00 0.00 55 1020.9
20210924165039 71 138 0.0 0.0 0.00 0.00 0.00 60 1020.9
20210924164537 71 138 0.0 0.0 0.00 0.00 0.00 58 1020.9
20210924164037 71 138 0.0 0.0 0.00 0.00 0.00 52 1020.9
20210924163536 73 138 0.0 0.0 0.00 0.00 0.00 55 1020.9
20210924163035 72 138 0.0 0.0 0.00 0.00 0.00 54 1020.9
20210924162533 72 138 0.0 0.0 0.00 0.00 0.00 56 1020.9
20210924162031 71 138 0.0 0.0 0.00 0.00 0.00 56 1020.9
20210924161530 71 138 0.0 0.0 0.00 0.00 0.00 59 1020.9
20210924161030 71 138 0.0 0.0 0.00 0.00 0.00 55 1020.9
20210924160530 70 138 0.0 0.0 0.00 0.00 0.00 57 1020.9
20210924160029 69 138 0.0 0.0 0.00 0.00 0.00 58 1020.9
20210924155527 69 138 0.0 0.0 0.00 0.00 0.00 59 1020.9
20210924155027 69 138 0.0 0.0 0.00 0.00 0.00 59 1021.3
20210924154525 70 138 0.0 0.0 0.00 0.00 0.00 58 1021.3
20210924154023 69 138 0.0 0.0 0.00 0.00 0.00 57 1021.3
20210924153521 69 138 0.0 0.0 0.00 0.00 0.00 57 1021.7
20210924153019 69 138 0.0 0.0 0.00 0.00 0.00 56 1021.3
20210924152518 69 138 0.0 0.0 0.00 0.00 0.00 57 1021.7
20210924152016 69 138 0.0 0.0 0.00 0.00 0.00 63 1021.3
20210924151515 68 138 0.0 0.0 0.00 0.00 0.00 61 1021.3
20210924151014 67 138 0.0 0.0 0.00 0.00 0.00 63 1021.3
20210924150512 66 138 0.0 0.0 0.00 0.00 0.00 68 1021.3
20210924150012 65 138 0.0 0.0 0.00 0.00 0.00 68 1021.3
20210924145509 64 138 0.0 0.0 0.00 0.00 0.00 68 1021.7
20210924145009 64 138 0.0 0.0 0.00 0.00 0.00 69 1021.3
20210924144507 63 138 0.0 0.0 0.00 0.00 0.00 75 1021.3
20210924144006 62 138 0.0 0.0 0.00 0.00 0.00 78 1021.7
20210924143505 61 138 0.0 0.0 0.00 0.00 0.00 77 1021.3
20210924143003 60 138 0.0 0.0 0.00 0.00 0.00 80 1021.7
20210924142502 60 138 0.0 0.0 0.00 0.00 0.00 80 1021.7
20210924142002 59 138 0.0 0.0 0.00 0.00 0.00 82 1021.7
20210924141500 58 138 0.0 0.0 0.00 0.00 0.00 87 1021.3
20210924140959 57 138 0.0 0.0 0.00 0.00 0.00 85 1021.7
20210924140457 57 138 0.0 0.0 0.00 0.00 0.00 87 1021.7
20210924135956 56 138 0.0 0.0 0.00 0.00 0.00 89 1021.3
20210924135454 56 138 0.0 0.0 0.00 0.00 0.00 90 1020.9
20210924134954 56 138 0.0 0.0 0.00 0.00 0.00 90 1021.3
20210924134449 55 138 0.0 0.0 0.00 0.00 0.00 90 1020.9
20210924133931 55 138 0.0 0.0 0.00 0.00 0.00 93 1020.9
20210924133429 55 138 0.0 0.0 0.00 0.00 0.00 93 1020.9
20210924132929 54 138 0.0 0.0 0.00 0.00 0.00 94 1021.3
20210924132427 53 138 0.0 0.0 0.00 0.00 0.00 94 1021.3
20210924131923 53 138 0.0 0.0 0.00 0.00 0.00 94 1020.9
20210924131423 53 138 0.0 0.0 0.00 0.00 0.00 95 1020.9
20210924130922 52 138 0.0 0.0 0.00 0.00 0.00 95 1020.9
20210924130422 51 138 0.0 0.0 0.00 0.00 0.00 95 1020.9
20210924125919 51 138 0.0 0.0 0.00 0.00 0.00 95 1020.9
20210924125418 50 138 0.0 0.0 0.00 0.00 0.00 95 1020.9
20210924124917 50 138 0.0 0.0 0.00 0.00 0.00 95 1020.5
20210924124415 50 138 0.0 0.0 0.00 0.00 0.00 96 1020.9
20210924123911 49 138 0.0 0.0 0.00 0.00 0.00 96 1020.9
20210924123355 49 138 0.0 0.0 0.00 0.00 0.00 96 1020.9
20210924122854 48 138 0.0 0.0 0.00 0.00 0.00 96 1020.5
20210924122353 48 138 0.0 0.0 0.00 0.00 0.00 95 1020.5
20210924121851 47 138 0.0 0.0 0.00 0.00 0.00 95 1020.5
20210924121351 47 138 0.0 0.0 0.00 0.00 0.00 95 1020.5
20210924120849 47 138 0.0 0.0 0.00 0.00 0.00 95 1020.2
20210924120348 47 138 0.0 0.0 0.00 0.00 0.00 95 1020.5
20210924115847 47 138 0.0 0.0 0.00 0.00 0.00 95 1020.5
20210924115347 46 138 0.0 0.0 0.00 0.00 0.00 95 1020.2
20210924114845 46 138 0.0 0.0 0.00 0.00 0.00 94 1020.2
20210924114345 47 138 0.0 0.0 0.00 0.00 0.00 95 1020.2
20210924113843 47 138 0.0 0.0 0.00 0.00 0.00 95 1020.2
20210924113341 47 138 0.0 0.0 0.00 0.00 0.00 95 1019.9
20210924112839 47 138 0.0 0.0 0.00 0.00 0.00 95 1020.2
20210924112337 47 138 0.0 0.0 0.00 0.00 0.00 95 1019.9
20210924111835 47 138 0.0 0.0 0.00 0.00 0.00 95 1019.9
20210924111334 47 138 0.0 0.0 0.00 0.00 0.00 95 1019.9
20210924110833 47 138 0.0 0.0 0.00 0.00 0.00 95 1019.9
20210924110332 47 138 0.0 0.0 0.00 0.00 0.00 95 1019.5
20210924105831 47 138 0.0 0.0 0.00 0.00 0.00 95 1019.9
20210924105328 47 138 0.0 0.0 0.00 0.00 0.00 95 1019.5
20210924104826 47 138 0.0 0.0 0.00 0.00 0.00 94 1019.9
20210924104325 47 138 0.0 0.0 0.00 0.00 0.00 94 1019.9
20210924103823 47 138 0.0 0.0 0.00 0.00 0.00 94 1019.5
20210924103322 47 138 0.0 0.0 0.00 0.00 0.00 94 1019.5
20210924102822 47 138 0.0 0.0 0.00 0.00 0.00 94 1019.5
20210924102320 48 138 0.0 0.0 0.00 0.00 0.00 94 1019.9
20210924101818 48 138 0.0 0.0 0.00 0.00 0.00 94 1019.5
20210924101316 48 138 0.0 0.0 0.00 0.00 0.00 94 1019.2
20210924100814 48 138 0.0 0.0 0.00 0.00 0.00 94 1019.5
20210924100313 48 138 0.0 0.0 0.00 0.00 0.00 95 1019.5
20210924095810 48 138 0.0 0.0 0.00 0.00 0.00 95 1019.2
20210924095310 48 138 0.0 0.0 0.00 0.00 0.00 95 1019.5
20210924094807 48 138 0.0 0.0 0.00 0.00 0.00 95 1019.2
20210924094306 49 138 0.0 0.0 0.00 0.00 0.00 95 1019.5
20210924093805 49 138 0.0 0.0 0.00 0.00 0.00 95 1019.2
20210924093304 48 138 0.0 0.0 0.00 0.00 0.00 95 1019.2
20210924092803 48 138 0.0 0.0 0.00 0.00 0.00 95 1019.5
20210924084249 49 138 0.0 0.0 0.00 0.00 0.00 94 1018.8
20210924083749 49 138 0.0 0.0 0.00 0.00 0.00 94 1018.8
20210924083247 49 138 0.0 0.0 0.00 0.00 0.00 94 1018.8
20210924082748 49 138 0.0 0.0 0.00 0.00 0.00 94 1018.8
20210924082246 49 138 0.0 0.0 0.00 0.00 0.00 94 1018.8
20210924081744 49 138 0.0 0.0 0.00 0.00 0.00 94 1018.8
20210924081243 49 138 0.0 0.0 0.00 0.00 0.00 94 1019.2
20210924080742 49 138 0.0 0.0 0.00 0.00 0.00 94 1018.8
20210924080240 49 138 0.0 0.0 0.00 0.00 0.00 94 1018.8
20210924075739 49 138 0.0 0.0 0.00 0.00 0.00 94 1018.8
20210924075238 49 138 0.0 0.0 0.00 0.00 0.00 94 1018.8
20210924074735 50 138 0.0 0.0 0.00 0.00 0.00 94 1019.2
20210924074234 50 138 0.0 0.0 0.00 0.00 0.00 94 1019.2
20210924073733 50 138 0.0 0.0 0.00 0.00 0.00 94 1018.8
20210924073232 50 138 0.0 0.0 0.00 0.00 0.00 94 1019.2
20210924072731 50 138 0.0 0.0 0.00 0.00 0.00 94 1018.8
20210924072230 50 138 0.0 0.0 0.00 0.00 0.00 94 1019.2
20210924071725 50 138 0.0 0.0 0.00 0.00 0.00 95 1018.8
20210924071222 51 138 0.0 0.0 0.00 0.00 0.00 95 1018.8
20210924070708 50 138 0.0 0.0 0.00 0.00 0.00 95 1018.8
20210924070204 50 138 0.0 0.0 0.00 0.00 0.00 94 1018.8
20210924065702 50 138 0.0 0.0 0.00 0.00 0.00 94 1019.2
20210924065201 50 138 0.0 0.0 0.00 0.00 0.00 94 1018.8
20210924064659 51 138 0.0 0.0 0.00 0.00 0.00 94 1019.2
20210924064158 51 138 0.0 0.0 0.00 0.00 0.00 94 1019.2
20210924063650 51 138 0.0 0.0 0.00 0.00 0.00 94 1019.2
20210924063148 51 138 0.0 0.0 0.00 0.00 0.00 94 1019.5
20210924062647 51 138 0.0 0.0 0.00 0.00 0.00 94 1019.5
20210924062146 51 138 0.0 0.0 0.00 0.00 0.00 94 1019.5
20210924061645 51 138 0.0 0.0 0.00 0.00 0.00 94 1019.5
20210924061143 51 138 0.0 0.0 0.00 0.00 0.00 94 1019.5
20210924060643 51 138 0.0 0.0 0.00 0.00 0.00 94 1019.2
20210924060141 51 138 0.0 0.0 0.00 0.00 0.00 93 1019.5
20210924055638 51 138 0.0 0.0 0.00 0.00 0.00 93 1019.5
20210924055138 51 138 0.0 0.0 0.00 0.00 0.00 93 1019.5
20210924054637 51 138 0.0 0.0 0.00 0.00 0.00 93 1019.5
20210924054136 51 138 0.0 0.0 0.00 0.00 0.00 93 1019.5
20210924053634 51 138 0.0 0.0 0.00 0.00 0.00 93 1019.9
20210924053133 51 138 0.0 0.0 0.00 0.00 0.00 93 1019.9
20210924052621 51 138 0.0 0.0 0.00 0.00 0.00 93 1019.5
20210924052122 51 138 0.0 0.0 0.00 0.00 0.00 93 1019.9
20210924051620 52 138 0.0 0.0 0.00 0.00 0.00 93 1019.9
20210924051117 52 138 0.0 0.0 0.00 0.00 0.00 93 1019.5
20210924050616 52 138 0.0 0.0 0.00 0.00 0.00 93 1019.5
20210924050114 52 138 0.0 0.0 0.00 0.00 0.00 93 1019.9
20210924045612 52 138 0.0 0.0 0.00 0.00 0.00 93 1019.9
20210924045112 52 138 0.0 0.0 0.00 0.00 0.00 93 1019.9
20210924044611 52 138 0.0 0.0 0.00 0.00 0.00 93 1019.9
20210924044110 52 138 0.0 0.0 0.00 0.00 0.00 94 1019.5
20210924043609 52 138 0.0 0.0 0.00 0.00 0.00 94 1019.5
20210924043109 52 138 0.0 0.0 0.00 0.00 0.00 93 1019.5
20210924042607 52 138 0.0 0.0 0.00 0.00 0.00 93 1019.5
20210924042105 52 138 0.0 0.0 0.00 0.00 0.00 92 1019.5
20210924041603 52 138 0.0 0.0 0.00 0.00 0.00 92 1019.5
20210924041101 53 138 0.0 0.0 0.00 0.00 0.00 92 1019.5
20210924040559 53 138 0.0 0.0 0.00 0.00 0.00 92 1019.5
20210924040058 53 138 0.0 0.0 0.00 0.00 0.00 93 1019.2
20210924035557 53 138 0.0 0.0 0.00 0.00 0.00 93 1019.5
20210924035054 53 138 0.0 0.0 0.00 0.00 0.00 93 1019.5
20210924034554 53 138 0.0 0.0 0.00 0.00 0.00 93 1019.5
20210924034053 53 138 0.0 0.0 0.00 0.00 0.00 92 1019.5
20210924033551 53 138 0.0 0.0 0.00 0.00 0.00 92 1019.5
20210924033049 53 138 0.0 0.0 0.00 0.00 0.00 92 1019.5
20210924032547 53 138 0.0 0.0 0.00 0.00 0.00 92 1019.2
20210924032045 54 138 0.0 0.0 0.00 0.00 0.00 92 1019.2
20210924031545 54 138 0.0 0.0 0.00 0.00 0.00 92 1019.2
20210924031042 54 138 0.0 0.0 0.00 0.00 0.00 92 1019.5
20210924030542 54 138 0.0 0.0 0.00 0.00 0.00 92 1019.2
20210924030040 54 138 0.0 0.0 0.00 0.00 0.00 91 1019.2
20210924025538 54 138 0.0 0.0 0.00 0.00 0.00 92 1019.5
20210924025037 54 138 0.0 0.0 0.00 0.00 0.00 92 1019.2
20210924024534 54 138 0.0 0.0 0.00 0.00 0.00 92 1019.2
20210924024033 54 138 0.0 0.0 0.00 0.00 0.00 91 1019.2
20210924023533 55 138 0.0 0.0 0.00 0.00 0.00 91 1019.2
20210924023033 55 138 0.0 0.0 0.00 0.00 0.00 91 1019.2
20210924022532 55 138 0.0 0.0 0.00 0.00 0.00 91 1019.2
20210924022029 55 138 0.0 0.0 0.00 0.00 0.00 91 1018.8
20210924021527 55 138 0.0 0.0 0.00 0.00 0.00 91 1018.8
20210924021026 55 138 0.0 0.0 0.00 0.00 0.00 90 1018.8
20210924020525 55 138 0.0 0.0 0.00 0.00 0.00 90 1018.8
20210924020024 55 138 0.0 0.0 0.00 0.00 0.00 90 1018.8
20210924015523 56 138 0.0 0.0 0.00 0.00 0.00 90 1018.5
20210924015022 56 138 0.0 0.0 0.00 0.00 0.00 90 1018.8
20210924014521 56 138 0.0 0.0 0.00 0.00 0.00 90 1018.5
20210924014020 56 138 0.0 0.0 0.00 0.00 0.00 90 1018.5
20210924013518 56 138 0.0 0.0 0.00 0.00 0.00 89 1018.8
20210924013016 56 138 0.0 0.0 0.00 0.00 0.00 88 1018.8
20210924012515 57 138 0.0 0.0 0.00 0.00 0.00 89 1018.8
20210924012014 57 138 0.0 0.0 0.00 0.00 0.00 88 1018.8
20210924011513 57 138 0.0 0.0 0.00 0.00 0.00 88 1018.5
20210924011011 57 138 0.0 0.0 0.00 0.00 0.00 88 1018.5
20210924010510 57 138 0.0 0.0 0.00 0.00 0.00 88 1018.2
20210924010008 57 138 0.0 0.0 0.00 0.00 0.00 88 1018.2
20210924005507 58 138 0.0 0.0 0.00 0.00 0.00 88 1018.2
20210924005005 58 138 0.0 0.0 0.00 0.00 0.00 88 1018.2
20210924004505 58 138 0.0 0.0 0.00 0.00 0.00 87 1018.2
20210924004005 58 138 0.0 0.0 0.00 0.00 0.00 87 1018.2
20210924003502 58 138 0.0 0.0 0.00 0.00 0.00 86 1018.2
20210924003000 58 138 0.0 0.0 0.00 0.00 0.00 86 1017.8
20210924002456 58 138 0.0 0.0 0.00 0.00 0.00 85 1017.8
20210924001956 59 138 0.0 0.0 0.00 0.00 0.00 85 1017.8
20210924001454 59 138 0.0 0.0 0.00 0.00 0.00 84 1017.8
20210924000952 59 138 0.0 0.0 0.00 0.00 0.00 84 1017.5
20210924000448 60 138 0.0 0.0 0.00 0.00 0.00 83 1017.5
20210923235946 60 138 0.0 0.0 0.00 0.00 0.00 82 1017.8
20210923235444 60 138 0.0 0.0 0.00 0.00 0.00 81 1017.8
20210923234944 61 138 0.0 0.0 0.00 0.00 0.00 80 1017.8
20210923234440 61 138 0.0 0.0 0.00 0.00 0.00 80 1017.5
20210923233937 61 138 0.0 0.0 0.00 0.00 0.00 78 1017.5
20210923233436 62 138 0.0 0.0 0.00 0.00 0.00 77 1017.5
20210923232936 62 138 0.0 0.0 0.00 0.00 0.00 78 1017.5
20210923232435 62 138 0.0 0.0 0.00 0.00 0.00 76 1017.5
20210923231934 63 138 0.0 0.0 0.00 0.00 0.00 77 1017.5
20210923231432 63 138 0.0 0.0 0.00 0.00 0.00 76 1017.8
20210923230931 63 138 0.0 0.0 0.00 0.00 0.00 77 1017.5
20210923230426 63 138 0.0 0.0 0.00 0.00 0.00 76 1017.2
20210923225925 64 138 0.0 0.0 0.00 0.00 0.00 75 1017.5
20210923225423 64 138 0.0 0.0 0.00 0.00 0.00 74 1017.5
20210923224922 65 138 0.0 0.0 0.00 0.00 0.00 72 1017.5
20210923224420 65 138 0.0 0.0 0.00 0.00 0.00 72 1017.5
20210923223916 65 138 0.0 0.0 0.00 0.00 0.00 72 1017.2
20210923223415 66 138 0.0 0.0 0.00 0.00 0.00 70 1017.5
20210923222914 66 138 0.0 0.0 0.00 0.00 0.00 71 1017.5
20210923222410 66 138 0.0 0.0 0.00 0.00 0.00 67 1017.5
20210923221909 67 138 0.0 0.0 0.00 0.00 0.00 67 1017.2
20210923221407 67 138 0.0 0.0 0.00 0.00 0.00 64 1017.5
20210923220906 68 138 0.0 0.0 0.00 0.00 0.00 61 1017.5
20210923220404 69 138 0.0 0.0 0.00 0.00 0.00 62 1017.5
20210923215904 69 138 0.0 0.0 0.00 0.00 0.00 65 1017.2
20210923215400 69 138 0.0 0.0 0.00 0.00 0.00 59 1017.5
20210923214859 69 138 0.0 0.0 0.00 0.00 0.00 57 1017.5
20210923214358 69 138 0.0 0.0 0.00 0.00 0.00 60 1017.5
20210923213855 69 138 0.0 0.0 0.00 0.00 0.00 56 1017.5
20210923213354 70 138 0.0 0.0 0.00 0.00 0.00 61 1017.5
20210923212854 70 138 0.0 0.0 0.00 0.00 0.00 63 1017.8
20210923212352 69 138 0.0 0.0 0.00 0.00 0.00 61 1017.5
20210923211851 69 138 0.0 0.0 0.00 0.00 0.00 60 1017.5
20210923211350 69 138 0.0 0.0 0.00 0.00 0.00 57 1017.5